Retour au catalogue

FENGYUN 1C DEB

ActifPO
NORAD 30072·DEBRIS·🇨🇳 China

Lancé May 10, 1999 depuis Taiyuan Satellite Launch Center

Loading…

Prochains Passages (prochaines 24 heures)

TLE

FraisSource: Space-Track

Époque: Sep 14, 2026, 09:40 UTC

1 30072U 99025PZ  26257.40345888  .00005684  00000-0  17068-2 0  9996
2 30072  99.0953  67.4709 0055230 180.7106 179.4012 14.42234090 11409

Suivez FENGYUN 1C DEB en temps réel avec AllMySat

Download on the App Store